Location: Unspecified
(0.0000°N, 0.0000°E)
Time: 17:07:16
(UTC+00:00)

Courier 1B Rocket - Pass Details

Date: 15 April 2021
Orbit: 920 x 1202 km, 28.3° (Epoch: 14 May)

Event Time Altitude Azimuth Distance (km) Brightness Sun altitude
Rises 20:06:22 0° 282° (WNW) 3,719 9.2 -31.1°
Reaches altitude 10° 20:10:16 10° 304° (WNW) 2,826 8.2 -32.0°
Maximum altitude 20:14:10 16° 338° (NNW) 2,490 7.4 -33.0°
Drops below altitude 10° 20:18:14 10° 13° (NNE) 2,945 7.5 -34.0°
Enters shadow 20:18:16 10° 13° (NNE) 2,953 7.5 -34.0°
